Easton, MD

11:39 PM EST on November 18, 2019 (GMT -0500)
Easton / Newnam

Weather History for KESN - September, 2019

Change the Weather History Date:

Wednesday, September 11, 2019

  Actual Average Record
Temperature  
Mean Temperature 80 °F -  
Max Temperature 91 °F 80 °F 93 °F (2013)
Min Temperature 68 °F 57 °F 40 °F (1949)
Cooling Degree Days 14    
Growing Degree Days 30 (Base 50)    
Moisture  
Dew Point 70 °F    
Average Humidity 82    
Maximum Humidity 95    
Minimum Humidity 52    
Precipitation  
Precipitation 0.00 in - - ()
Sea Level Pressure  
Sea Level Pressure 30.23 in    
Wind  
Wind Speed 6 mph (South)    
Max Wind Speed 13 mph    
Max Gust Speed -    
Visibility 10 miles    
Events      
Averages and records for this station are not official NWS values.
T = Trace of Precipitation, MM = Missing Value Source: NWS Daily Summary

Daily Weather History Graph

Daily Weather History Graph

Search for Another Location

Airport or City:

Astronomy

Sep. 11, 2019 Rise Set
Actual Time 6:41 AM EDT 7:19 PM EDT
Civil Twilight 6:15 AM EDT 7:46 PM EDT
Nautical Twilight 5:43 AM EDT 8:17 PM EDT
Astronomical Twilight 5:10 AM EDT 8:50 PM EDT
Moon 6:28 PM EDT (9/11) 4:04 AM EDT (9/11)
Length of Visible Light 13h 30m
Length of Day
12h 37m
Waxing Gibbous, 94% of the Moon is Illuminated
Sep 11
Waxing Gibbous
Sep 14
Full
Sep 21
Last Quarter
Sep 28
New
Oct 5
First Quarter

Hourly Weather History & Observations

Time (EDT) Temp. Heat Index Dew Point Humidity Pressure Visibility Wind Dir Wind Speed Gust Speed Precip Events Conditions
12:00 AM 71.8 °F - 67.6 °F 87% 30.30 in 10.0 mi South 5.8 mph - N/A   Clear
12:20 AM 71.6 °F - 67.5 °F 87% 30.31 in 10.0 mi South 6.9 mph - N/A   Clear
12:40 AM 71.6 °F - 67.5 °F 87% 30.31 in 10.0 mi SSE 5.8 mph - N/A   Clear
1:00 AM 71.1 °F - 67.5 °F 88% 30.31 in 10.0 mi South 5.8 mph - N/A   Clear
1:20 AM 70.7 °F - 67.3 °F 89% 30.31 in 10.0 mi South 5.8 mph - N/A   Clear
2:40 AM 69.8 °F - 67.3 °F 92% 30.31 in 10.0 mi SSE 4.6 mph - N/A   Clear
3:00 AM 69.6 °F - 67.3 °F 92% 30.30 in 10.0 mi SSE 4.6 mph - N/A   Clear
3:20 AM 69.4 °F - 67.5 °F 93% 30.30 in 10.0 mi SSE 4.6 mph - N/A   Clear
3:40 AM 69.1 °F - 67.3 °F 94% 30.29 in 10.0 mi SSE 4.6 mph - N/A   Clear
4:00 AM 69.1 °F - 67.5 °F 95% 30.29 in 10.0 mi SSE 3.5 mph - N/A   Clear
4:20 AM 69.1 °F - 67.5 °F 95% 30.28 in 10.0 mi SSE 4.6 mph - N/A   Clear
4:40 AM 69.1 °F - 67.5 °F 95% 30.28 in 10.0 mi South 3.5 mph - N/A   Clear
5:00 AM 68.9 °F - 67.3 °F 95% 30.28 in 10.0 mi Calm Calm - N/A   Clear
5:20 AM 68.4 °F - 66.7 °F 95% 30.28 in 10.0 mi Calm Calm - N/A   Clear
5:40 AM 68.2 °F - 66.7 °F 95% 30.28 in 10.0 mi Calm Calm - N/A   Clear
5:53 AM 68.0 °F - 66.2 °F 94% 30.29 in 10.0 mi Calm Calm - N/A   Scattered Clouds
6:50 AM 69.8 °F - 68.0 °F 94% 30.29 in 10.0 mi SE 3.5 mph - N/A   Partly Cloudy
7:46 AM 71.6 °F - 69.8 °F 94% 30.29 in 10.0 mi SSE 4.6 mph - N/A   Mostly Cloudy
8:46 AM 75.2 °F - 71.6 °F 89% 30.29 in 10.0 mi SSW 8.1 mph - N/A   Scattered Clouds
9:50 AM 80.6 °F 83.9 °F 69.8 °F 70% 30.28 in 10.0 mi SSW 10.4 mph - N/A   Scattered Clouds
10:45 AM 82.4 °F 86.3 °F 69.8 °F 66% 30.26 in 10.0 mi SSW 12.7 mph - N/A   Clear
11:50 AM 86.0 °F 91.8 °F 71.6 °F 62% 30.24 in 10.0 mi SSW 11.5 mph - N/A   Clear
12:50 PM 86.0 °F 91.8 °F 71.6 °F 62% 30.21 in 10.0 mi South 11.5 mph - N/A   Clear
1:50 PM 87.8 °F 93.8 °F 71.6 °F 58% 30.18 in 10.0 mi SSW 10.4 mph - N/A   Clear
2:50 PM 89.6 °F 98.2 °F 73.4 °F 59% 30.16 in 10.0 mi South 11.5 mph - N/A   Clear
3:50 PM 89.6 °F 98.2 °F 73.4 °F 59% 30.13 in 10.0 mi South 6.9 mph - N/A   Clear
4:50 PM 91.4 °F 98.4 °F 71.6 °F 52% 30.12 in 10.0 mi SSW 5.8 mph - N/A   Clear
5:50 PM 87.8 °F 95.6 °F 73.4 °F 62% 30.12 in 10.0 mi South 11.5 mph - N/A   Clear
6:50 PM 84.2 °F 90.9 °F 73.4 °F 70% 30.12 in 10.0 mi South 9.2 mph - N/A   Clear
7:50 PM 82.4 °F 88.2 °F 73.4 °F 74% 30.12 in 10.0 mi SSE 9.2 mph - N/A   Clear
8:50 PM 80.6 °F 85.4 °F 73.4 °F 79% 30.13 in 10.0 mi South 6.9 mph - N/A   Clear
9:50 PM 80.6 °F 85.4 °F 73.4 °F 79% 30.13 in 10.0 mi South 5.8 mph - N/A   Clear
10:20 PM 80.2 °F 84.7 °F 73.4 °F 80% 30.12 in 10.0 mi South 6.9 mph - N/A   Clear
10:40 PM 79.7 °F - 73.6 °F 81% 30.13 in 10.0 mi SSW 6.9 mph - N/A   Clear
11:00 PM 79.0 °F - 73.8 °F 84% 30.12 in 10.0 mi SSW 5.8 mph - N/A   Clear
11:20 PM 79.0 °F - 74.3 °F 85% 30.12 in 10.0 mi SSW 6.9 mph - N/A   Clear
11:40 PM 78.8 °F - 74.7 °F 87% 30.12 in 10.0 mi SW 4.6 mph - N/A   Clear